Regional Weather Roundup
Issued by NWS Cleveland, OH

Home | Current Version | Previous Version | Graphics & Text | Print | Product List | Glossary On
Versions: 1 2 3 4 5 6 7 8 9 10 11 12 13 14 15 16 17 18 19 20 21 22 23 24 25 26 27 28 29 30 31 32 33 34 35 36 37 38 39 40 41 42 43 44 45 46 47 48 49 50
000
ASUS41 KCLE 240202
RWRCLE
OHIO REGIONAL WEATHER ROUNDUP
NATIONAL WEATHER SERVICE CLEVELAND, OH
1000 PM EDT SAT MAY 23 2015

NOTE: "FAIR" INDICATES FEW OR NO CLOUDS BELOW 12,000 FEET WITH NO
SIGNIFICANT WEATHER AND/OR OBSTRUCTIONS TO VISIBILITY.

OHZ001>008-015>018-024>027-034-035-043-044-240300-
   NORTHWEST OHIO

CITY           SKY/WX    TMP DP  RH WIND       PRES   REMARKS
DEFIANCE       CLEAR     65  51  60 CALM      30.26R
FINDLAY        CLEAR     67  46  47 S5        30.27R
TOLEDO EXPRESS CLEAR     63  43  48 E5        30.27R
TOLEDO EXEC    CLEAR     62  39  42 E6        30.28R
LIMA           CLEAR     66  46  48 S5        30.28R
$$

OHZ009>014-019>023-028>033-038-089-240300-
   NORTHEAST OHIO

CITY           SKY/WX    TMP DP  RH WIND       PRES   REMARKS
CLE-HOPKINS    PTCLDY    61  38  42 CALM      30.31S
CLE-LAKEFRONT  CLEAR     62  47  57 E5        30.29R
CUY CO. ARPT   PTCLDY    59  41  51 SE5       30.31S
LORAIN-ELYRIA  CLEAR     61  38  42 E3        30.30R
ASHTABULA      CLEAR     50  41  71 CALM      30.33S
AKRON-CANTON   CLEAR     63  39  41 S7        30.32R
WOOSTER        CLEAR     59  40  49 CALM      30.32R
MANSFIELD      CLEAR     63  42  46 SE8       30.31R
YOUNGSTOWN     PTCLDY    52  41  66 E6        30.32F
$$

OHZ042-051>053-060>062-070>072-077>081-240300-
  SOUTHWEST OHIO

CITY           SKY/WX    TMP DP  RH WIND       PRES   REMARKS
CINC-COVINGTON PTCLDY    67  45  45 E3        30.28R
CINC-LUNKEN    CLEAR     60  50  69 CALM      30.29R
HAMILTON       CLEAR     61  50  67 CALM      30.29R
DAYTON         PTCLDY    69  44  40 S5        30.30R
WRIGHT-PAT AFB CLEAR     66  48  52 CALM      30.28R
DAYTON GENERAL CLEAR     67  44  43 CALM      30.28R
WILMINGTON     CLEAR     64  42  44 SE3       30.30R
$$

OHZ036-037-039>041-045>050-054>059-063>069-073>076-082>088-240300-
  CENTRAL AND SOUTHEAST OHIO

CITY           SKY/WX    TMP DP  RH WIND       PRES   REMARKS
COLUMBUS       CLEAR     67  41  38 SE6       30.30R
OSU AIRPORT    CLEAR     68  40  35 SE6       30.30R
BOLTON FIELD   NOT AVBL
RICKENBACK AFB NOT AVBL
NEWARK         CLEAR     57  48  72 CALM      30.31R
MARION         CLEAR     63  42  46 S6        30.30R
LANCASTER      CLEAR     60  50  69 CALM      30.31R
ZANESVILLE     CLEAR     61  42  49 CALM      30.32R
NEW PHILLY     CLEAR     59  46  62 SE5       30.33R
$$


USA.gov is the U.S. government's official web portal to all federal, state and local government web resources and services.